Time,TemperatureF,DewpointF,PressureIn,WindDirection,WindDirectionDegrees,WindSpeedMPH,WindSpeedGustMPH,Humidity,HourlyPrecipIn,Conditions,Clouds,dailyrainin,SolarRadiationWatts/m^2,SoftwareType,DateUTC
2013-01-07 00:03:00,46.0,38.0,-100.00,WNW,289,3.0,9.0,73,0.01,,,0.05,0.000000,,2013-01-07 05:03:00,
2013-01-07 00:12:00,46.0,38.0,-100.00,WNW,289,3.0,9.0,73,0.01,,,0.05,0.000000,,2013-01-07 05:12:00,
2013-01-07 00:22:00,46.0,38.0,-100.00,WNW,289,3.0,9.0,73,0.01,,,0.05,0.000000,,2013-01-07 05:22:00,
2013-01-07 00:53:00,45.0,37.0,-100.00,WNW,293,5.0,10.0,72,0.00,,,0.05,0.000000,,2013-01-07 05:53:00,
2013-01-07 01:02:00,45.0,37.0,-100.00,WNW,293,5.0,10.0,72,0.00,,,0.05,0.000000,,2013-01-07 06:02:00,
2013-01-07 01:12:00,45.0,37.0,-100.00,WNW,293,5.0,10.0,72,0.00,,,0.05,0.000000,,2013-01-07 06:12:00,
2013-01-07 01:22:00,45.0,37.0,-100.00,WNW,293,5.0,10.0,72,0.00,,,0.05,0.000000,,2013-01-07 06:22:00,
2013-01-07 01:52:00,45.0,37.0,-100.00,WNW,292,4.0,10.0,72,0.00,,,0.05,0.000000,,2013-01-07 06:52:00,
2013-01-07 02:02:00,45.0,37.0,-100.00,WNW,292,4.0,10.0,72,0.00,,,0.05,0.000000,,2013-01-07 07:02:00,
2013-01-07 02:12:00,45.0,37.0,-100.00,WNW,292,4.0,10.0,72,0.00,,,0.05,0.000000,,2013-01-07 07:12:00,
2013-01-07 02:22:00,45.0,37.0,-100.00,WNW,292,4.0,10.0,72,0.00,,,0.05,0.000000,,2013-01-07 07:22:00,
2013-01-07 02:53:00,45.0,35.0,-100.00,WNW,287,4.0,11.0,69,0.00,,,0.05,0.000000,,2013-01-07 07:53:00,
2013-01-07 03:03:00,45.0,35.0,-100.00,WNW,287,4.0,11.0,69,0.00,,,0.05,0.000000,,2013-01-07 08:03:00,
2013-01-07 03:12:00,45.0,35.0,-100.00,WNW,287,4.0,11.0,69,0.00,,,0.05,0.000000,,2013-01-07 08:12:00,
2013-01-07 03:22:00,45.0,35.0,-100.00,WNW,287,4.0,11.0,69,0.00,,,0.05,0.000000,,2013-01-07 08:22:00,
2013-01-07 03:53:00,44.0,34.0,-100.00,WNW,292,4.0,12.0,67,0.00,,,0.05,0.000000,,2013-01-07 08:53:00,
2013-01-07 04:02:00,44.0,34.0,-100.00,WNW,292,4.0,12.0,67,0.00,,,0.05,0.000000,,2013-01-07 09:02:00,
2013-01-07 04:12:00,44.0,34.0,-100.00,WNW,292,4.0,12.0,67,0.00,,,0.05,0.000000,,2013-01-07 09:12:00,
2013-01-07 04:23:00,44.0,34.0,-100.00,WNW,292,4.0,12.0,67,0.00,,,0.05,0.000000,,2013-01-07 09:23:00,
2013-01-07 04:53:00,43.0,32.0,-100.00,WNW,286,4.0,10.0,65,0.00,,,0.05,0.000000,,2013-01-07 09:53:00,
2013-01-07 05:02:00,43.0,32.0,-100.00,WNW,286,4.0,10.0,65,0.00,,,0.05,0.000000,,2013-01-07 10:02:00,
2013-01-07 05:12:00,43.0,32.0,-100.00,WNW,286,4.0,10.0,65,0.00,,,0.05,0.000000,,2013-01-07 10:12:00,
2013-01-07 05:22:00,43.0,32.0,-100.00,WNW,286,4.0,10.0,65,0.00,,,0.05,0.000000,,2013-01-07 10:22:00,
2013-01-07 05:53:00,43.0,32.0,-100.00,WNW,294,3.0,11.0,64,0.00,,,0.05,0.000000,,2013-01-07 10:53:00,
2013-01-07 06:02:00,43.0,32.0,-100.00,WNW,294,3.0,11.0,64,0.00,,,0.05,0.000000,,2013-01-07 11:02:00,
2013-01-07 06:12:00,43.0,32.0,-100.00,WNW,294,3.0,11.0,64,0.00,,,0.05,0.000000,,2013-01-07 11:12:00,
2013-01-07 06:23:00,43.0,32.0,-100.00,WNW,294,3.0,11.0,64,0.00,,,0.05,0.000000,,2013-01-07 11:23:00,
2013-01-07 06:53:00,43.0,32.0,-100.00,West,273,3.0,9.0,65,0.00,,,0.05,0.000000,,2013-01-07 11:53:00,
2013-01-07 07:03:00,43.0,32.0,-100.00,West,273,3.0,9.0,65,0.00,,,0.05,0.000000,,2013-01-07 12:03:00,
2013-01-07 07:12:00,43.0,32.0,-100.00,West,273,3.0,9.0,65,0.00,,,0.05,0.000000,,2013-01-07 12:12:00,
2013-01-07 07:23:00,43.0,32.0,-100.00,West,273,3.0,9.0,65,0.00,,,0.05,0.000000,,2013-01-07 12:23:00,
2013-01-07 07:53:00,43.0,32.0,-100.00,West,281,3.0,9.0,65,0.00,,,0.05,2.000000,,2013-01-07 12:53:00,
2013-01-07 08:03:00,43.0,32.0,-100.00,West,281,3.0,9.0,65,0.00,,,0.05,2.000000,,2013-01-07 13:03:00,
2013-01-07 08:12:00,43.0,32.0,-100.00,West,281,3.0,9.0,65,0.00,,,0.05,2.000000,,2013-01-07 13:12:00,
2013-01-07 08:23:00,43.0,32.0,-100.00,West,281,3.0,9.0,65,0.00,,,0.05,2.000000,,2013-01-07 13:23:00,
2013-01-07 08:53:00,43.0,32.0,-100.00,NNE,27,4.0,11.0,65,0.00,,,0.05,42.000000,,2013-01-07 13:53:00,
2013-01-07 09:03:00,43.0,32.0,-100.00,NNE,27,4.0,11.0,65,0.00,,,0.05,42.000000,,2013-01-07 14:03:00,
2013-01-07 09:13:00,43.0,32.0,-100.00,NNE,27,4.0,11.0,65,0.00,,,0.05,42.000000,,2013-01-07 14:13:00,
2013-01-07 09:22:00,43.0,32.0,-100.00,NNE,27,4.0,11.0,65,0.00,,,0.05,42.000000,,2013-01-07 14:22:00,
2013-01-07 09:53:00,48.0,36.0,-100.00,NNE,31,6.0,14.0,62,0.00,,,0.05,192.000000,,2013-01-07 14:53:00,
2013-01-07 10:03:00,48.0,36.0,-100.00,NNE,31,6.0,14.0,62,0.00,,,0.05,192.000000,,2013-01-07 15:03:00,
2013-01-07 10:12:00,48.0,36.0,-100.00,NNE,31,6.0,14.0,62,0.00,,,0.05,192.000000,,2013-01-07 15:12:00,
2013-01-07 10:23:00,48.0,36.0,-100.00,NNE,31,6.0,14.0,62,0.00,,,0.05,192.000000,,2013-01-07 15:23:00,
2013-01-07 10:53:00,49.0,36.0,-100.00,NNE,27,6.0,13.0,61,0.00,,,0.05,428.000000,,2013-01-07 15:53:00,
2013-01-07 11:03:00,49.0,36.0,-100.00,NNE,27,6.0,13.0,61,0.00,,,0.05,428.000000,,2013-01-07 16:03:00,
2013-01-07 11:12:00,49.0,36.0,-100.00,NNE,27,6.0,13.0,61,0.00,,,0.05,428.000000,,2013-01-07 16:12:00,
2013-01-07 11:23:00,49.0,36.0,-100.00,NNE,27,6.0,13.0,61,0.00,,,0.05,428.000000,,2013-01-07 16:23:00,
2013-01-07 11:53:00,51.0,37.0,-100.00,NNE,28,5.0,13.0,58,0.00,,,0.05,540.000000,,2013-01-07 16:53:00,
2013-01-07 12:03:00,51.0,37.0,-100.00,NNE,28,5.0,13.0,58,0.00,,,0.05,540.000000,,2013-01-07 17:03:00,
2013-01-07 12:12:00,51.0,37.0,-100.00,NNE,28,5.0,13.0,58,0.00,,,0.05,540.000000,,2013-01-07 17:12:00,
2013-01-07 12:23:00,51.0,37.0,-100.00,NNE,28,5.0,13.0,58,0.00,,,0.05,540.000000,,2013-01-07 17:23:00,
2013-01-07 12:53:00,51.0,37.0,-100.00,ENE,57,5.0,12.0,58,0.00,,,0.05,594.000000,,2013-01-07 17:53:00,
2013-01-07 13:03:00,51.0,37.0,-100.00,ENE,57,5.0,12.0,58,0.00,,,0.05,594.000000,,2013-01-07 18:03:00,
2013-01-07 13:13:00,51.0,37.0,-100.00,ENE,57,5.0,12.0,58,0.00,,,0.05,594.000000,,2013-01-07 18:13:00,
2013-01-07 13:23:00,51.0,37.0,-100.00,ENE,57,5.0,12.0,58,0.00,,,0.05,594.000000,,2013-01-07 18:23:00,
2013-01-07 13:53:00,51.0,36.0,-100.00,ENE,60,6.0,14.0,57,0.00,,,0.05,581.000000,,2013-01-07 18:53:00,
2013-01-07 14:03:00,51.0,36.0,-100.00,ENE,60,6.0,14.0,57,0.00,,,0.05,581.000000,,2013-01-07 19:03:00,
2013-01-07 14:12:00,51.0,36.0,-100.00,ENE,60,6.0,14.0,57,0.00,,,0.05,581.000000,,2013-01-07 19:12:00,
2013-01-07 14:23:00,51.0,36.0,-100.00,ENE,60,6.0,14.0,57,0.00,,,0.05,581.000000,,2013-01-07 19:23:00,
2013-01-07 14:53:00,51.0,37.0,-100.00,ENE,62,6.0,13.0,58,0.00,,,0.05,508.000000,,2013-01-07 19:53:00,
2013-01-07 15:03:00,51.0,37.0,-100.00,ENE,62,6.0,13.0,58,0.00,,,0.05,508.000000,,2013-01-07 20:03:00,
2013-01-07 15:13:00,51.0,37.0,-100.00,ENE,62,6.0,13.0,58,0.00,,,0.05,508.000000,,2013-01-07 20:13:00,
2013-01-07 15:23:00,51.0,37.0,-100.00,ENE,62,6.0,13.0,58,0.00,,,0.05,508.000000,,2013-01-07 20:23:00,
2013-01-07 15:53:00,49.0,35.0,-100.00,ENE,67,7.0,15.0,59,0.00,,,0.05,380.000000,,2013-01-07 20:53:00,
2013-01-07 16:03:00,49.0,35.0,-100.00,ENE,67,7.0,15.0,59,0.00,,,0.05,380.000000,,2013-01-07 21:03:00,
2013-01-07 16:12:00,49.0,35.0,-100.00,ENE,67,7.0,15.0,59,0.00,,,0.05,380.000000,,2013-01-07 21:12:00,
2013-01-07 16:23:00,49.0,35.0,-100.00,ENE,67,7.0,15.0,59,0.00,,,0.05,380.000000,,2013-01-07 21:23:00,
2013-01-07 16:53:00,47.0,34.0,-100.00,ENE,64,7.0,17.0,61,0.00,,,0.05,123.000000,,2013-01-07 21:53:00,
2013-01-07 17:03:00,47.0,34.0,-100.00,ENE,64,7.0,17.0,61,0.00,,,0.05,123.000000,,2013-01-07 22:03:00,
2013-01-07 17:12:00,47.0,34.0,-100.00,ENE,64,7.0,17.0,61,0.00,,,0.05,123.000000,,2013-01-07 22:12:00,
2013-01-07 17:23:00,47.0,34.0,-100.00,ENE,64,7.0,17.0,61,0.00,,,0.05,123.000000,,2013-01-07 22:23:00,
2013-01-07 17:53:00,46.0,34.0,-100.00,ENE,65,8.0,15.0,62,0.00,,,0.05,14.000000,,2013-01-07 22:53:00,
2013-01-07 18:03:00,46.0,34.0,-100.00,ENE,65,8.0,15.0,62,0.00,,,0.05,14.000000,,2013-01-07 23:03:00,
2013-01-07 18:12:00,46.0,34.0,-100.00,ENE,65,8.0,15.0,62,0.00,,,0.05,14.000000,,2013-01-07 23:12:00,
2013-01-07 18:23:00,46.0,34.0,-100.00,ENE,65,8.0,15.0,62,0.00,,,0.05,14.000000,,2013-01-07 23:23:00,
2013-01-07 18:53:00,46.0,34.0,-100.00,ENE,65,7.0,17.0,62,0.00,,,0.05,0.000000,,2013-01-07 23:53:00,
2013-01-07 19:03:00,46.0,34.0,-100.00,ENE,65,7.0,17.0,62,0.00,,,0.05,0.000000,,2013-01-08 00:03:00,
2013-01-07 19:12:00,46.0,34.0,-100.00,ENE,65,7.0,17.0,62,0.00,,,0.05,0.000000,,2013-01-08 00:12:00,
2013-01-07 19:22:00,46.0,34.0,-100.00,ENE,65,7.0,17.0,62,0.00,,,0.05,0.000000,,2013-01-08 00:22:00,
2013-01-07 19:53:00,45.0,33.0,-100.00,ENE,68,6.0,15.0,62,0.00,,,0.05,0.000000,,2013-01-08 00:53:00,
2013-01-07 20:03:00,45.0,33.0,-100.00,ENE,68,6.0,15.0,62,0.00,,,0.05,0.000000,,2013-01-08 01:03:00,
2013-01-07 20:12:00,45.0,33.0,-100.00,ENE,68,6.0,15.0,62,0.00,,,0.05,0.000000,,2013-01-08 01:12:00,
2013-01-07 20:22:00,45.0,33.0,-100.00,ENE,68,6.0,15.0,62,0.00,,,0.05,0.000000,,2013-01-08 01:22:00,
2013-01-07 20:53:00,45.0,33.0,-100.00,NE,38,3.0,11.0,63,0.00,,,0.02,0.000000,,2013-01-08 01:53:00,
2013-01-07 21:02:00,45.0,33.0,-100.00,NE,38,3.0,11.0,63,0.00,,,0.02,0.000000,,2013-01-08 02:02:00,
2013-01-07 21:12:00,45.0,33.0,-100.00,NE,38,3.0,11.0,63,0.00,,,0.02,0.000000,,2013-01-08 02:12:00,
2013-01-07 21:22:00,45.0,33.0,-100.00,NE,38,3.0,11.0,63,0.00,,,0.02,0.000000,,2013-01-08 02:22:00,
2013-01-07 21:53:00,43.0,32.0,-100.00,North,357,2.0,7.0,66,0.00,,,0.01,0.000000,,2013-01-08 02:53:00,
2013-01-07 22:03:00,43.0,32.0,-100.00,North,357,2.0,7.0,66,0.00,,,0.01,0.000000,,2013-01-08 03:03:00,
2013-01-07 22:12:00,43.0,32.0,-100.00,North,357,2.0,7.0,66,0.00,,,0.01,0.000000,,2013-01-08 03:12:00,
2013-01-07 22:22:00,43.0,32.0,-100.00,North,357,2.0,7.0,66,0.00,,,0.01,0.000000,,2013-01-08 03:22:00,
2013-01-07 22:53:00,44.0,33.0,-100.00,NNE,22,4.0,10.0,66,0.00,,,0.01,0.000000,,2013-01-08 03:53:00,
2013-01-07 23:02:00,44.0,33.0,-100.00,NNE,22,4.0,10.0,66,0.00,,,0.01,0.000000,,2013-01-08 04:02:00,
2013-01-07 23:12:00,44.0,33.0,-100.00,NNE,22,4.0,10.0,66,0.00,,,0.01,0.000000,,2013-01-08 04:12:00,
2013-01-07 23:22:00,44.0,33.0,-100.00,NNE,22,4.0,10.0,66,0.00,,,0.01,0.000000,,2013-01-08 04:22:00,
2013-01-07 23:52:00,44.0,33.0,-100.00,NNE,22,3.0,8.0,66,0.00,,,0.00,0.000000,,2013-01-08 04:52:00,